• In Russia
  • List of Countries
  • For 7 days
  • Water Temperature
  • Satellite Maps
  • Weather Map
  • Weather Widgets
  • user-avatar
    Login

    Hourly Weather Shusha

    Today, 24 June, Saturday

    Time Temperature Precipitation Wind Pressure Humidity
    00:00 +13°C° 0.1 mm 1 mps 660 mmHg 81%
    01:00 +12°C° 0.1 mm 1 mps 660 mmHg 82%
    02:00 +12°C° 0.1 mm 1 mps 660 mmHg 83%
    03:00 +10°C° 0 mm 0 mps 659 mmHg 88%
    04:00 +12°C° 0.1 mm 0 mps 659 mmHg 84%
    05:00 +14°C° 0.1 mm 1 mps 660 mmHg 81%
    06:00 +16°C° 0.1 mm 1 mps 661 mmHg 78%
    07:00 +18°C° 0 mm 1 mps 661 mmHg 71%
    08:00 +20°C° 0 mm 1 mps 661 mmHg 64%
    09:00 +21°C° 0 mm 1 mps 661 mmHg 57%
    10:00 +21°C° 0 mm 2 mps 661 mmHg 54%
    11:00 +23°C° 0 mm 2 mps 661 mmHg 51%
    12:00 +24°C° 0 mm 2 mps 661 mmHg 48%
    13:00 +25°C° 0 mm 2 mps 661 mmHg 46%
    14:00 +25°C° 0 mm 2 mps 660 mmHg 45%
    15:00 +26°C° 0 mm 2 mps 660 mmHg 44%
    16:00 +25°C° 0 mm 2 mps 660 mmHg 46%
    17:00 +25°C° 0 mm 2 mps 660 mmHg 48%
    18:00 +24°C° 0 mm 2 mps 659 mmHg 50%
    19:00 +22°C° 0 mm 1 mps 659 mmHg 58%
    20:00 +19°C° 0 mm 1 mps 659 mmHg 67%
    21:00 +16°C° 0 mm 1 mps 658 mmHg 75%
    22:00 +15°C° 0 mm 1 mps 658 mmHg 75%
    23:00 +15°C° 0 mm 1 mps 658 mmHg 75%

    Tomorrow, 25 June, Sunday

    Time Temperature Precipitation Wind Pressure Humidity
    00:00 +15°C° 0 mm 1 mps 658 mmHg 75%
    01:00 +14°C° 0 mm 1 mps 658 mmHg 77%
    02:00 +14°C° 0 mm 1 mps 658 mmHg 78%
    03:00 +14°C° 0 mm 1 mps 658 mmHg 79%
    04:00 +15°C° 0 mm 1 mps 658 mmHg 76%
    05:00 +18°C° 0 mm 1 mps 659 mmHg 72%
    06:00 +19°C° 0 mm 1 mps 659 mmHg 68%
    07:00 +21°C° 0 mm 1 mps 660 mmHg 61%
    08:00 +23°C° 0 mm 1 mps 660 mmHg 54%
    09:00 +25°C° 0 mm 2 mps 660 mmHg 47%
    10:00 +25°C° 0.3 mm 2 mps 661 mmHg 45%
    11:00 +26°C° 0.3 mm 2 mps 661 mmHg 44%
    12:00 +27°C° 0.3 mm 3 mps 661 mmHg 42%
    13:00 +27°C° 0.6 mm 3 mps 660 mmHg 42%
    14:00 +27°C° 0.6 mm 2 mps 660 mmHg 42%
    15:00 +28°C° 0.6 mm 2 mps 660 mmHg 42%
    16:00 +27°C° 0.3 mm 2 mps 660 mmHg 44%
    17:00 +26°C° 0.3 mm 2 mps 660 mmHg 46%
    18:00 +26°C° 0.3 mm 2 mps 660 mmHg 47%
    19:00 +23°C° 0.2 mm 2 mps 660 mmHg 55%
    20:00 +20°C° 0.2 mm 2 mps 660 mmHg 62%
    21:00 +17°C° 0.2 mm 2 mps 660 mmHg 69%
    22:00 +17°C° 0 mm 2 mps 660 mmHg 71%
    23:00 +17°C° 0 mm 2 mps 660 mmHg 73%

    Day after tomorrow, 26 June, Monday

    Time Temperature Precipitation Wind Pressure Humidity
    00:00 +16°C° 0 mm 1 mps 660 mmHg 74%
    01:00 +16°C° 0 mm 1 mps 660 mmHg 75%
    02:00 +15°C° 0 mm 1 mps 660 mmHg 76%
    03:00 +14°C° 0 mm 1 mps 660 mmHg 77%
    04:00 +16°C° 0 mm 1 mps 661 mmHg 74%
    05:00 +18°C° 0 mm 1 mps 662 mmHg 71%
    06:00 +19°C° 0 mm 1 mps 662 mmHg 67%
    07:00 +20°C° 0 mm 2 mps 663 mmHg 61%
    08:00 +21°C° 0 mm 2 mps 663 mmHg 54%
    09:00 +24°C° 0 mm 3 mps 664 mmHg 47%
    10:00 +25°C° 0 mm 3 mps 664 mmHg 45%
    11:00 +26°C° 0 mm 4 mps 664 mmHg 42%
    12:00 +27°C° 0 mm 4 mps 664 mmHg 40%
    13:00 +27°C° 0 mm 4 mps 664 mmHg 40%
    14:00 +27°C° 0 mm 4 mps 663 mmHg 40%
    15:00 +28°C° 0 mm 4 mps 663 mmHg 39%
    16:00 +27°C° 0 mm 4 mps 663 mmHg 42%
    17:00 +26°C° 0 mm 3 mps 663 mmHg 45%
    18:00 +25°C° 0 mm 3 mps 662 mmHg 48%
    19:00 +21°C° 0 mm 3 mps 662 mmHg 56%
    20:00 +19°C° 0 mm 2 mps 662 mmHg 64%
    21:00 +16°C° 0 mm 1 mps 662 mmHg 72%
    22:00 +16°C° 0 mm 1 mps 662 mmHg 72%
    23:00 +16°C° 0 mm 1 mps 662 mmHg 73%

    27 June, Tuesday

    Time Temperature Precipitation Wind Pressure Humidity
    00:00 +16°C° 0 mm 1 mps 662 mmHg 74%
    01:00 +15°C° 0 mm 1 mps 661 mmHg 75%
    02:00 +15°C° 0 mm 1 mps 661 mmHg 76%
    03:00 +14°C° 0 mm 1 mps 661 mmHg 77%
    04:00 +16°C° 0 mm 1 mps 661 mmHg 73%
    05:00 +18°C° 0 mm 1 mps 662 mmHg 69%
    06:00 +19°C° 0 mm 1 mps 662 mmHg 65%
    07:00 +21°C° 0 mm 1 mps 663 mmHg 57%
    08:00 +23°C° 0 mm 1 mps 663 mmHg 49%
    09:00 +25°C° 0 mm 1 mps 663 mmHg 41%
    10:00 +27°C° 0 mm 2 mps 663 mmHg 38%
    11:00 +28°C° 0 mm 2 mps 663 mmHg 36%
    12:00 +29°C° 0 mm 2 mps 663 mmHg 33%
    13:00 +30°C° 0 mm 2 mps 662 mmHg 33%
    14:00 +30°C° 0 mm 2 mps 662 mmHg 33%
    15:00 +30°C° 0 mm 2 mps 662 mmHg 32%
    16:00 +30°C° 0 mm 2 mps 662 mmHg 35%
    17:00 +29°C° 0 mm 2 mps 661 mmHg 38%
    18:00 +28°C° 0 mm 2 mps 661 mmHg 40%
    19:00 +25°C° 0 mm 1 mps 661 mmHg 49%
    20:00 +22°C° 0 mm 1 mps 661 mmHg 57%
    21:00 +19°C° 0 mm 1 mps 660 mmHg 65%
    22:00 +19°C° 0 mm 1 mps 660 mmHg 65%
    23:00 +19°C° 0 mm 1 mps 660 mmHg 65%

    28 June, Wednesday

    Time Temperature Precipitation Wind Pressure Humidity
    00:00 +18°C° 0 mm 1 mps 660 mmHg 65%
    01:00 +18°C° 0 mm 1 mps 660 mmHg 66%
    02:00 +18°C° 0 mm 1 mps 660 mmHg 66%
    03:00 +16°C° 0 mm 1 mps 659 mmHg 67%
    04:00 +19°C° 0 mm 1 mps 660 mmHg 64%
    05:00 +20°C° 0 mm 1 mps 661 mmHg 61%
    06:00 +22°C° 0 mm 1 mps 661 mmHg 58%
    07:00 +24°C° 0 mm 1 mps 662 mmHg 51%
    08:00 +26°C° 0 mm 1 mps 662 mmHg 43%
    09:00 +28°C° 0 mm 2 mps 662 mmHg 36%
    10:00 +29°C° 0 mm 2 mps 662 mmHg 34%
    11:00 +30°C° 0 mm 2 mps 662 mmHg 32%
    12:00 +31°C° 0 mm 3 mps 662 mmHg 29%
    13:00 +31°C° 0 mm 3 mps 661 mmHg 29%
    14:00 +33°C° 0 mm 3 mps 661 mmHg 29%
    15:00 +33°C° 0 mm 3 mps 660 mmHg 29%
    16:00 +31°C° 0 mm 3 mps 660 mmHg 31%
    17:00 +30°C° 0 mm 3 mps 660 mmHg 34%
    18:00 +29°C° 0 mm 2 mps 660 mmHg 37%
    19:00 +26°C° 0 mm 2 mps 659 mmHg 44%
    20:00 +23°C° 0 mm 2 mps 659 mmHg 52%
    21:00 +20°C° 0 mm 1 mps 658 mmHg 59%
    22:00 +20°C° 0 mm 1 mps 658 mmHg 59%
    23:00 +19°C° 0 mm 1 mps 658 mmHg 59%

    29 June, Thursday

    Time Temperature Precipitation Wind Pressure Humidity
    00:00 +19°C° 0 mm 1 mps 658 mmHg 59%
    01:00 +19°C° 0 mm 1 mps 658 mmHg 60%
    02:00 +18°C° 0 mm 1 mps 658 mmHg 60%
    03:00 +18°C° 0 mm 1 mps 658 mmHg 61%
    04:00 +19°C° 0 mm 1 mps 658 mmHg 58%
    05:00 +20°C° 0 mm 1 mps 659 mmHg 55%
    06:00 +22°C° 0 mm 1 mps 659 mmHg 52%
    07:00 +23°C° 0 mm 1 mps 660 mmHg 47%
    08:00 +25°C° 0 mm 1 mps 660 mmHg 42%
    09:00 +27°C° 0 mm 2 mps 661 mmHg 37%
    10:00 +28°C° 0 mm 2 mps 660 mmHg 35%
    11:00 +29°C° 0 mm 3 mps 660 mmHg 34%
    12:00 +29°C° 0 mm 3 mps 660 mmHg 33%
    13:00 +30°C° 0 mm 3 mps 660 mmHg 32%
    14:00 +30°C° 0 mm 3 mps 660 mmHg 32%
    15:00 +30°C° 0 mm 3 mps 659 mmHg 32%
    16:00 +30°C° 0 mm 3 mps 659 mmHg 34%
    17:00 +29°C° 0 mm 3 mps 659 mmHg 35%
    18:00 +28°C° 0 mm 3 mps 659 mmHg 36%
    19:00 +25°C° 0 mm 3 mps 659 mmHg 42%
    20:00 +21°C° 0 mm 2 mps 658 mmHg 48%
    21:00 +18°C° 0 mm 2 mps 658 mmHg 54%
    22:00 +18°C° 0 mm 2 mps 658 mmHg 54%
    23:00 +18°C° 0 mm 2 mps 658 mmHg 53%
    Show more